Regional Weather Roundup
Issued by NWS

Home | Current Version | Previous Version | Graphics & Text | Print | Product List | Glossary Off
Versions: 1 2 3 4 5 6 7 8 9 10 11 12 13 14 15 16 17 18 19 20 21 22 23 24 25 26 27 28 29 30 31 32 33 34 35 36 37 38 39 40 41 42 43 44 45 46 47 48 49 50

000
ASUS43 KDTX 280201
RWRMI
MICHIGAN HOURLY REGIONAL WEATHER ROUNDUP
NATIONAL WEATHER SERVICE DETROIT/PONTIAC MI
1000 PM EDT WED JUL 27 2016

NOTE: "FAIR" INDICATES FEW OR NO CLOUDS BELOW 12,000 FEET WITH NO
SIGNIFICANT WEATHER AND/OR OBSTRUCTION TO VISIBILITY.

MIZ047>049-052>055-059>063-066>070-074>076-081>083-280300-
SOUTHEAST LOWER MICHIGAN

CITY           SKY/WX    TMP DP  RH WIND       PRES   REMARKS
ADRIAN         CLEAR     77  65  66 N7        29.95R
ALMA           PTCLDY    68  68  99 E5        29.96S
ANN ARBOR      CLEAR     77  64  64 NE3       29.95R
BAD AXE        CLOUDY    68  67  96 W3        29.96R
CARO           CLOUDY    66  65  95 CALM      29.95S
DETROIT CITY   PTCLDY    79  66  64 N8        29.94R
DETROIT        MOCLDY    82  63  52 N8        29.94R
FLINT          CLEAR     75  63  66 N3        29.96R
GROSSE ILE     CLEAR     79  67  66 N3        29.92R
HILLSDALE      CLEAR     74  63  68 N3        29.97R
HOWELL         CLEAR     71  64  77 CALM      29.97R

CITY           SKY/WX    TMP DP  RH WIND       PRES   REMARKS
JACKSON        CLEAR     73  62  68 CALM      29.97R
LAMBERTVILLE   CLEAR     74  65  72 CALM      29.94R
LANSING        PTCLDY    71  63  75 E3        29.96F
LAPEER         FAIR      69  63  82 CALM      29.96S HAZE
MASON          PTCLDY    70  62  75 NE3       29.97R
MONROE         PTCLDY    74  69  87 NW9       29.92R
MT. CLEMENS    PTCLDY    75  67  76 N5        29.93R
PONTIAC        PTCLDY    74  64  71 E5        29.95R
PORT HOPE        N/A     69  68  96 SW3       29.92S
PORT HURON     PTCLDY    70  66  88 CALM      29.94F
TRI CITIES     PTCLDY    70  69  97 CALM      29.96F
MIDLAND        FAIR      69  69  97 CALM      29.95S
TROY           MOCLDY    79  62  57 NE6       29.96R
SAGINAW HB     CLOUDY    68  64  88 CALM      29.95S
$$
MIZ043>046-050>051-056>058-064>065-071>073-077>080-280300-
SOUTHWEST LOWER MICHIGAN

CITY           SKY/WX    TMP DP  RH WIND       PRES   REMARKS
BATTLE CREEK   CLEAR     72  63  73 NE6       29.97S
BENTON HARBOR  PTCLDY    72  65  78 CALM      29.95R
BIG RAPIDS     PTCLDY    71  71 100 CALM      29.96R
COLDWATER      CLEAR     73  64  73 NE8       29.96S
FREMONT        FAIR      71  71 100 CALM      29.95R
HOLLAND        MOCLDY    75  69  81 E6        29.95R
GRAND RAPIDS   MOCLDY    73  64  73 CALM      29.96R
IONIA          FAIR      70  64  80 CALM      29.95S
KALAMAZOO      PTCLDY    73  64  73 CALM      29.96R
LUDINGTON      CLOUDY    71  65  83 CALM      29.94S
MARSHALL       MOCLDY    73  63  70 CALM      29.96R
MOUNT PLEASANT CLEAR     70  69  97 CALM      29.96R
MUSKEGON       MOCLDY    75  71  87 CALM      29.94R
SOUTH HAVEN    PTCLDY    72  67  86 CALM      29.95R
$$
MIZ016>042-280300-
NORTHERN LOWER MICHIGAN

CITY           SKY/WX    TMP DP  RH WIND       PRES   REMARKS
ALPENA         HVY RAIN  70  67  90 NW8       29.98R FOG
BEAVER ISLAND  CLOUDY    69  63  81 N5        29.98R
BELLAIRE       CLOUDY    72  65  80 CALM      29.96R
CADILLAC       CLOUDY    71  67  88 CALM      29.97S
CHARLEVOIX     CLOUDY    71  69  92 N5        29.99R
FRANKFORT      PTCLDY    73  64  75 N3        29.95S
GAYLORD        CLOUDY    73  65  75 N6        29.98R
GRAYLING       PTCLDY    73  66  78 CALM      29.98R
HARBOR SPRINGS CLOUDY    71  62  73 NE5       29.96R
HOUGHTON LAKE  PTCLDY    74  70  87 CALM      29.97R
MANISTEE       CLOUDY    71  65  81 CALM      29.94
OSCODA         CLOUDY    68  66  94 CALM      29.94R
PELLSTON       CLOUDY    70  60  70 CALM      29.97
ROGERS CITY    CLOUDY    72  58  63 N3        29.97S
TRAVERSE CITY  CLOUDY    75  65  70 N7        29.93S
$$
MIZ007>008-015-280300-
EASTERN UPPER MICHIGAN

CITY           SKY/WX    TMP DP  RH WIND       PRES   REMARKS
KINROSS        PTCLDY    64  58  80 NW8       29.98S
MACKINAC ISLAN PTCLDY    67  56  69 N8        29.97S
S. S. MARIE    PTCLDY    65  57  75 NW8       29.96S
$$
MIZ004>006-011>014-085-280300-
CENTRAL UPPER MICHIGAN

CITY           SKY/WX    TMP DP  RH WIND       PRES   REMARKS
ESCANABA       MOCLDY    66  55  68 NE9       29.97S
MENOMINEE      CLOUDY   N/A N/A N/A NE9       29.97S
SAWYER-GWINN   CLOUDY    61  57  88 NE6       30.03S
$$
MIZ001>003-009>011-084-280300-
WESTERN UPPER MICHIGAN

CITY           SKY/WX    TMP DP  RH WIND       PRES   REMARKS
IRON MOUNTAIN  LGT RAIN  64  56  75 N9        30.00R
HOUGHTON       CLOUDY    61  58  90 CALM      30.03R
COPPER HARBOR    N/A     64  56  75 CALM      30.01S
IRONWOOD       CLOUDY    64  63  94 NE6       30.00S
$$

ABBREVIATIONS USED IN REMARKS
   TC - TEMPERATURE IN CELSIUS
  WCI - WIND CHILL INDEX
   HX - HEAT INDEX
  VSB - VISIBILITY





USA.gov is the U.S. government's official web portal to all federal, state and local government web resources and services.